Fuzhou Changle International Airport
ZSFZ : now visible

Airfield :











YOU CAN JOIN US ON...

 
LOGIN :

Register | Disclaimer

   EN    FR    IT 

 









Legend :    VFR   Marginal VFR   IFR   Intensive IFR   Very Intensive IFR
Visi :
Ceiling :
>= 8 km
>= 3000ft
5 to 8 km
1000 to 3000 ft
1500m to 5 km
500 to 1000 ft
800 to 1500m
200 to 500 ft
< 800m
< 200 ft
Symbols :   Thunderstorms  Fog  Heavy snow  Heavy precipitations  Wind > 20 kt







- Airport Elevation : 46 ft
- IATA code : FOC


ZSFZ - Fuzhou Changle International

CURRENT METAR :
  • 241700Z 35002MPS 300V030 9999 BKN023 BKN043 23/19 Q1012 NOSIG

EXPIRED METARs :
  • 241600Z 35003MPS 320V030 9999 BKN021 BKN043 23/18 Q1012 NOSIG
  • 241500Z 34003MPS 290V040 9999 BKN021 BKN043 23/18 Q1013 NOSIG

TAF TAF ZSFZ
Valid from the 24 at 18:00 until the 25 at 18:00 UTC


241510Z 2418/2518 02003MPS 7000 BKN020 TX29/2506Z TN20/2421Z
ZSHA FIR / Asia



MET'MAP, your aeronautical weather chart ! - Copyright ORBIFLY December 2007 - Disclaimer

ORBIFLY MET'MAP TEAM :

Programming & Development : Alexandra Zaïnal
Concept & Development : Baudouin d'Aumeries
Co-Development & Prog : Marc-Olivier Méhu
Technical & hardware support : Manuel Goepfert

Contact : metmap@orbifly.com




SOURCES & CREDITS :

   NOAA       Earth
Advisory